Location: NJAA Observatory
(40.6819°N, 74.8979°W)
Time: 07:39:54
(UTC-04:00)

Iridium 84 - Visible Passes

Search period start: 25 March 2017 00:00
Search period end: 04 April 2017 00:00
Orbit: 776 x 779 km, 86.4° (Epoch: 23 March)

Date Brightness Start Highest point End Pass type
(mag) Time Alt. Az. Time Alt. Az. Time Alt. Az.
31 Mar 8.5 01:41:02 10° N 01:41:12 11° N 01:41:12 11° N visible
01 Apr 8.5 01:07:36 10° N 01:07:48 11° N 01:07:48 11° N visible
03 Apr 8.4 01:41:13 10° N 01:41:31 12° NNW 01:41:31 12° NNW visible
